Xi'an Xianyang International

Airport
ICAO code: 
ZLXY
Summary
ICAO Region: 
APAC
Territory: 
Location: 
Xi'an, Shaanxi,
Coordinates: 
Aerial View: 
34° 26' 48.998" N, 108° 45' 5" E
Metar
Observation
ZLXY 081400Z VRB01MPS 6000 NSC 00/M04 Q1027 NOSIG
Station
Xian/Xianyang
Date/Time
2021-12-08 14:00:00
Lowest cloud amount
nil significant cloud
Temperature
0°C
Dew point
-4°C
Humidity
74%
QNH
1027 hPa
Weather condition
n/a

Xi'an Xianyang International Airport (IATA: XIY) serves Xi'an, Shaanxi, People's Republic of China.

Runways

Designator Length Width Surface Rops
5/23 3000 45 CON Yes/Yes
Airport map: 
Aerial View: 

SKYbrary Partners:

Safety knowledge contributed by: